Time,TemperatureF,DewpointF,PressureIn,WindDirection,WindDirectionDegrees,WindSpeedMPH,WindSpeedGustMPH,Humidity,HourlyPrecipIn,Conditions,Clouds,dailyrainin,SoftwareType,DateUTC
2013-04-07 00:00:00,32.3,25.6,29.91,East,90,0.0,0.0,76,0.00,,,0.00,WUHU216HW,2013-04-07 06:00:00,
2013-04-07 00:05:00,32.3,25.6,29.91,NE,45,6.0,6.0,76,0.00,,,0.00,WUHU216HW,2013-04-07 06:05:00,
2013-04-07 00:10:00,32.3,25.9,29.91,East,90,0.0,6.0,77,0.00,,,0.00,WUHU216HW,2013-04-07 06:10:00,
2013-04-07 00:15:00,32.3,25.9,29.91,ESE,113,0.0,6.0,77,0.00,,,0.00,WUHU216HW,2013-04-07 06:15:00,
2013-04-07 00:20:00,32.5,26.4,29.91,NE,45,4.2,7.3,78,0.00,,,0.00,WUHU216HW,2013-04-07 06:20:00,
2013-04-07 00:25:00,32.5,26.4,29.91,NE,45,5.3,7.3,78,0.00,,,0.00,WUHU216HW,2013-04-07 06:25:00,
2013-04-07 00:30:00,32.5,26.4,29.91,NE,45,5.1,6.9,78,0.00,,,0.00,WUHU216HW,2013-04-07 06:30:00,
2013-04-07 00:35:00,32.5,26.4,29.91,NE,45,0.0,8.0,78,0.00,,,0.00,WUHU216HW,2013-04-07 06:35:00,
2013-04-07 00:40:00,32.5,26.7,29.90,NE,45,2.4,8.0,79,0.00,,,0.00,WUHU216HW,2013-04-07 06:40:00,
2013-04-07 00:45:00,32.7,26.9,29.90,NE,45,13.8,13.8,79,0.00,,,0.00,WUHU216HW,2013-04-07 06:45:00,
2013-04-07 00:51:00,33.0,27.2,29.90,NNE,23,6.2,13.8,79,0.00,,,0.00,WUHU216HW,2013-04-07 06:51:00,
2013-04-07 00:56:00,33.0,27.2,29.90,NNE,23,3.8,6.2,79,0.00,,,0.00,WUHU216HW,2013-04-07 06:56:00,
2013-04-07 01:01:00,33.2,27.4,29.90,NE,45,5.1,6.2,79,0.00,,,0.00,WUHU216HW,2013-04-07 07:01:00,
2013-04-07 01:15:00,33.6,27.4,29.89,ENE,68,0.0,6.0,78,0.00,,,0.00,WUHU216HW,2013-04-07 07:15:00,
2013-04-07 01:20:00,33.8,27.5,29.89,NNE,23,0.0,6.0,78,0.00,,,0.00,WUHU216HW,2013-04-07 07:20:00,
2013-04-07 01:25:00,33.8,27.5,29.89,NNE,23,0.0,0.0,78,0.00,,,0.00,WUHU216HW,2013-04-07 07:25:00,
2013-04-07 01:30:00,33.6,27.0,29.89,NNE,23,0.0,0.0,77,0.00,,,0.00,WUHU216HW,2013-04-07 07:30:00,
2013-04-07 01:35:00,33.6,27.0,29.89,NNE,23,0.0,0.0,77,0.00,,,0.00,WUHU216HW,2013-04-07 07:35:00,
2013-04-07 01:40:00,33.4,26.9,29.89,NE,45,0.0,0.0,77,0.00,,,0.00,WUHU216HW,2013-04-07 07:40:00,
2013-04-07 01:45:00,33.4,27.2,29.88,NE,45,0.0,0.0,78,0.00,,,0.00,WUHU216HW,2013-04-07 07:45:00,
2013-04-07 01:50:00,33.4,26.9,29.89,NE,45,0.0,0.0,77,0.00,,,0.00,WUHU216HW,2013-04-07 07:50:00,
2013-04-07 01:55:00,33.4,26.9,29.89,NE,45,5.3,5.3,77,0.00,,,0.00,WUHU216HW,2013-04-07 07:55:00,
2013-04-07 02:00:00,33.4,26.9,29.89,ENE,68,0.0,5.3,77,0.00,,,0.00,WUHU216HW,2013-04-07 08:00:00,
2013-04-07 02:15:00,33.0,26.2,29.88,NNW,338,0.0,0.0,76,0.00,,,0.00,WUHU216HW,2013-04-07 08:15:00,
2013-04-07 02:20:00,32.7,26.2,29.88,NNW,338,0.0,0.0,77,0.00,,,0.00,WUHU216HW,2013-04-07 08:20:00,
2013-04-07 02:25:00,32.5,26.1,29.88,West,270,3.5,3.5,77,0.00,,,0.00,WUHU216HW,2013-04-07 08:25:00,
2013-04-07 02:30:00,32.3,25.9,29.87,WNW,293,4.9,4.9,77,0.00,,,0.00,WUHU216HW,2013-04-07 08:30:00,
2013-04-07 02:35:00,32.1,26.1,29.87,NNW,338,0.0,4.9,78,0.00,,,0.00,WUHU216HW,2013-04-07 08:35:00,
2013-04-07 02:40:00,32.1,26.7,29.87,WSW,248,4.0,4.0,80,0.00,,,0.00,WUHU216HW,2013-04-07 08:40:00,
2013-04-07 02:45:00,32.1,26.4,29.87,NW,315,0.0,4.0,79,0.00,,,0.00,WUHU216HW,2013-04-07 08:45:00,
2013-04-07 02:50:00,32.1,26.4,29.87,WNW,293,4.9,4.9,79,0.00,,,0.00,WUHU216HW,2013-04-07 08:50:00,
2013-04-07 02:55:00,32.1,26.4,29.86,West,270,0.0,4.9,79,0.00,,,0.00,WUHU216HW,2013-04-07 08:55:00,
2013-04-07 03:00:00,32.1,26.4,29.86,WNW,293,4.6,4.9,79,0.00,,,0.00,WUHU216HW,2013-04-07 09:00:00,
2013-04-07 03:15:00,32.1,26.4,29.86,West,270,2.2,4.6,79,0.00,,,0.00,WUHU216HW,2013-04-07 09:15:00,
2013-04-07 03:20:00,32.1,26.4,29.86,WNW,293,2.9,6.9,79,0.00,,,0.00,WUHU216HW,2013-04-07 09:20:00,
2013-04-07 03:25:00,32.1,26.7,29.86,West,270,0.0,6.9,80,0.00,,,0.00,WUHU216HW,2013-04-07 09:25:00,
2013-04-07 03:30:00,32.0,26.6,29.86,WNW,293,7.3,7.3,80,0.00,,,0.00,WUHU216HW,2013-04-07 09:30:00,
2013-04-07 03:35:00,31.8,26.4,29.85,West,270,3.5,7.3,80,0.00,,,0.00,WUHU216HW,2013-04-07 09:35:00,
2013-04-07 03:40:00,31.8,26.4,29.85,WNW,293,0.0,7.3,80,0.00,,,0.00,WUHU216HW,2013-04-07 09:40:00,
2013-04-07 03:45:00,31.8,26.4,29.85,WNW,293,4.0,4.0,80,0.00,,,0.00,WUHU216HW,2013-04-07 09:45:00,
2013-04-07 03:50:00,31.8,26.2,29.85,WNW,293,6.0,6.7,80,0.00,,,0.00,WUHU216HW,2013-04-07 09:50:00,
2013-04-07 03:55:00,31.6,26.2,29.85,West,270,3.1,6.7,80,0.00,,,0.00,WUHU216HW,2013-04-07 09:55:00,
2013-04-07 04:00:00,31.8,26.4,29.85,WNW,293,7.1,7.1,80,0.00,,,0.00,WUHU216HW,2013-04-07 10:00:00,
2013-04-07 04:15:00,31.8,26.4,29.84,West,270,0.8,7.1,80,0.00,,,0.00,WUHU216HW,2013-04-07 10:15:00,
2013-04-07 04:20:00,31.8,26.7,29.84,West,270,0.0,7.1,81,0.00,,,0.00,WUHU216HW,2013-04-07 10:20:00,
2013-04-07 04:26:00,31.8,26.7,29.84,WNW,293,4.9,6.7,81,0.00,,,0.00,WUHU216HW,2013-04-07 10:26:00,
2013-04-07 04:31:00,31.8,26.7,29.84,WNW,293,4.6,6.7,81,0.00,,,0.00,WUHU216HW,2013-04-07 10:31:00,
2013-04-07 04:36:00,31.8,26.4,29.84,WNW,293,2.0,7.8,80,0.00,,,0.00,WUHU216HW,2013-04-07 10:36:00,
2013-04-07 04:41:00,31.8,26.4,29.83,NW,315,0.0,7.8,80,0.00,,,0.00,WUHU216HW,2013-04-07 10:41:00,
2013-04-07 04:46:00,31.8,26.4,29.83,NNW,338,0.0,2.4,80,0.00,,,0.00,WUHU216HW,2013-04-07 10:46:00,
2013-04-07 04:51:00,31.8,26.4,29.83,NE,45,0.0,3.1,80,0.00,,,0.00,WUHU216HW,2013-04-07 10:51:00,
2013-04-07 04:56:00,31.8,26.4,29.82,NNE,23,0.0,3.1,80,0.00,,,0.00,WUHU216HW,2013-04-07 10:56:00,
2013-04-07 05:01:00,31.8,26.0,29.83,NNE,23,0.0,0.0,79,0.00,,,0.00,WUHU216HW,2013-04-07 11:01:00,
2013-04-07 05:15:00,31.2,25.5,29.82,NW,315,0.0,0.0,79,0.00,,,0.00,WUHU216HW,2013-04-07 11:15:00,
2013-04-07 05:20:00,30.9,25.1,29.82,NW,315,0.0,0.0,79,0.00,,,0.00,WUHU216HW,2013-04-07 11:20:00,
2013-04-07 05:25:00,30.7,25.0,29.81,WNW,293,0.0,0.0,79,0.00,,,0.00,WUHU216HW,2013-04-07 11:25:00,
2013-04-07 05:30:00,30.5,24.8,29.81,WNW,293,2.9,2.9,79,0.00,,,0.00,WUHU216HW,2013-04-07 11:30:00,
2013-04-07 05:35:00,30.0,24.2,29.81,West,270,0.0,4.9,79,0.00,,,0.00,WUHU216HW,2013-04-07 11:35:00,
2013-04-07 05:40:00,29.8,24.1,29.81,WNW,293,3.5,4.9,79,0.00,,,0.00,WUHU216HW,2013-04-07 11:40:00,
2013-04-07 05:45:00,29.4,24.0,29.81,West,270,4.4,4.4,80,0.00,,,0.00,WUHU216HW,2013-04-07 11:45:00,
2013-04-07 05:50:00,29.1,23.7,29.81,West,270,3.1,4.4,80,0.00,,,0.00,WUHU216HW,2013-04-07 11:50:00,
2013-04-07 05:55:00,28.7,23.3,29.81,WNW,293,6.4,7.1,80,0.00,,,0.00,WUHU216HW,2013-04-07 11:55:00,
2013-04-07 06:00:00,28.7,23.6,29.81,WNW,293,7.1,7.1,81,0.00,,,0.00,WUHU216HW,2013-04-07 12:00:00,
2013-04-07 06:05:00,28.7,23.6,29.81,West,270,3.5,7.1,81,0.00,,,0.00,WUHU216HW,2013-04-07 12:05:00,
2013-04-07 06:10:00,28.7,23.6,29.81,West,270,6.0,7.1,81,0.00,,,0.00,WUHU216HW,2013-04-07 12:10:00,
2013-04-07 06:15:00,28.5,23.4,29.81,WNW,293,6.9,7.1,81,0.00,,,0.00,WUHU216HW,2013-04-07 12:15:00,
2013-04-07 06:20:00,28.2,23.1,29.80,WNW,293,6.4,6.9,81,0.00,,,0.00,WUHU216HW,2013-04-07 12:20:00,
2013-04-07 06:25:00,28.2,23.1,29.80,WNW,293,6.0,6.4,81,0.00,,,0.00,WUHU216HW,2013-04-07 12:25:00,
2013-04-07 06:30:00,28.2,23.1,29.80,WNW,293,5.8,8.0,81,0.00,,,0.00,WUHU216HW,2013-04-07 12:30:00,
2013-04-07 06:35:00,28.0,23.2,29.80,West,270,2.4,8.2,81,0.00,,,0.00,WUHU216HW,2013-04-07 12:35:00,
2013-04-07 06:40:00,28.0,23.2,29.80,West,270,4.0,8.2,82,0.00,,,0.00,WUHU216HW,2013-04-07 12:40:00,
2013-04-07 06:45:00,28.0,23.2,29.80,WNW,293,6.7,6.7,82,0.00,,,0.00,WUHU216HW,2013-04-07 12:45:00,
2013-04-07 06:50:00,27.6,23.0,29.79,WNW,293,7.6,7.6,82,0.00,,,0.00,WUHU216HW,2013-04-07 12:50:00,
2013-04-07 06:55:00,27.6,22.8,29.79,North,0,6.9,7.6,82,0.00,,,0.00,WUHU216HW,2013-04-07 12:55:00,
2013-04-07 07:00:00,27.6,22.8,29.79,North,0,0.0,7.6,82,0.00,,,0.00,WUHU216HW,2013-04-07 13:00:00,
2013-04-07 07:06:00,27.6,22.8,29.79,ENE,68,0.0,6.9,82,0.00,,,0.00,WUHU216HW,2013-04-07 13:06:00,
2013-04-07 07:11:00,27.6,22.8,29.79,ENE,68,0.0,1.5,82,0.00,,,0.00,WUHU216HW,2013-04-07 13:11:00,
2013-04-07 07:16:00,27.5,22.3,29.79,ENE,68,0.0,0.0,81,0.00,,,0.00,WUHU216HW,2013-04-07 13:16:00,
2013-04-07 07:21:00,27.3,22.4,29.78,ENE,68,0.0,0.0,82,0.00,,,0.00,WUHU216HW,2013-04-07 13:21:00,
2013-04-07 07:26:00,27.3,22.4,29.78,WNW,293,2.0,2.0,82,0.00,,,0.00,WUHU216HW,2013-04-07 13:26:00,
2013-04-07 07:31:00,27.1,22.3,29.78,West,270,1.5,3.8,82,0.00,,,0.00,WUHU216HW,2013-04-07 13:31:00,
2013-04-07 07:36:00,27.1,22.3,29.78,WNW,293,5.8,5.8,82,0.00,,,0.00,WUHU216HW,2013-04-07 13:36:00,
2013-04-07 07:41:00,27.1,22.3,29.78,WNW,293,5.1,7.1,82,0.00,,,0.00,WUHU216HW,2013-04-07 13:41:00,
2013-04-07 07:46:00,27.1,22.6,29.78,WNW,293,6.9,7.1,83,0.00,,,0.00,WUHU216HW,2013-04-07 13:46:00,
2013-04-07 07:51:00,27.5,22.9,29.77,West,270,3.8,6.9,83,0.00,,,0.00,WUHU216HW,2013-04-07 13:51:00,
2013-04-07 07:56:00,27.6,23.1,29.77,WNW,293,4.9,6.7,83,0.00,,,0.00,WUHU216HW,2013-04-07 13:56:00,
2013-04-07 08:01:00,28.0,23.7,29.78,West,270,0.0,4.9,84,0.00,,,0.00,WUHU216HW,2013-04-07 14:01:00,
2013-04-07 08:06:00,28.9,24.9,29.78,West,270,0.0,4.9,85,0.00,,,0.00,WUHU216HW,2013-04-07 14:06:00,
2013-04-07 08:11:00,29.4,25.5,29.78,West,270,0.0,4.6,85,0.00,,,0.00,WUHU216HW,2013-04-07 14:11:00,
2013-04-07 08:16:00,30.2,26.2,29.78,NNW,338,0.0,0.0,85,0.00,,,0.00,WUHU216HW,2013-04-07 14:16:00,
2013-04-07 08:21:00,30.7,26.7,29.78,NNW,338,0.0,0.0,85,0.00,,,0.00,WUHU216HW,2013-04-07 14:21:00,
2013-04-07 08:26:00,31.2,27.0,29.78,ENE,68,0.0,2.6,84,0.00,,,0.00,WUHU216HW,2013-04-07 14:26:00,
2013-04-07 08:31:00,32.0,27.7,29.77,ENE,68,0.0,2.6,84,0.00,,,0.00,WUHU216HW,2013-04-07 14:31:00,
2013-04-07 08:36:00,32.3,27.7,29.77,ENE,68,0.0,0.0,83,0.00,,,0.00,WUHU216HW,2013-04-07 14:36:00,
2013-04-07 08:41:00,32.7,28.1,29.77,ENE,68,0.0,0.0,83,0.00,,,0.00,WUHU216HW,2013-04-07 14:41:00,
2013-04-07 08:46:00,33.2,28.3,29.77,ENE,68,2.6,2.6,82,0.00,,,0.00,WUHU216HW,2013-04-07 14:46:00,
2013-04-07 08:51:00,33.4,28.4,29.77,ENE,68,0.0,2.6,82,0.00,,,0.00,WUHU216HW,2013-04-07 14:51:00,
2013-04-07 08:56:00,33.6,28.6,29.76,ENE,68,0.0,2.6,82,0.00,,,0.00,WUHU216HW,2013-04-07 14:56:00,
2013-04-07 09:01:00,34.3,29.0,29.76,ENE,68,0.0,0.0,81,0.00,,,0.00,WUHU216HW,2013-04-07 15:01:00,
2013-04-07 09:06:00,34.5,29.2,29.76,ENE,68,0.0,0.0,81,0.00,,,0.00,WUHU216HW,2013-04-07 15:06:00,
2013-04-07 09:11:00,35.2,29.9,29.76,ENE,68,0.0,0.0,81,0.00,,,0.00,WUHU216HW,2013-04-07 15:11:00,
2013-04-07 09:16:00,35.4,29.8,29.76,ENE,68,0.8,0.8,80,0.00,,,0.00,WUHU216HW,2013-04-07 15:16:00,
2013-04-07 09:21:00,35.9,30.0,29.76,ENE,68,0.0,0.8,79,0.00,,,0.00,WUHU216HW,2013-04-07 15:21:00,
2013-04-07 09:26:00,36.1,30.2,29.76,ENE,68,0.0,0.8,79,0.00,,,0.00,WUHU216HW,2013-04-07 15:26:00,
2013-04-07 09:31:00,36.5,30.2,29.76,ENE,68,0.0,0.0,78,0.00,,,0.00,WUHU216HW,2013-04-07 15:31:00,
2013-04-07 09:36:00,36.5,30.2,29.76,ENE,68,0.0,0.0,78,0.00,,,0.00,WUHU216HW,2013-04-07 15:36:00,
2013-04-07 09:41:00,37.0,30.8,29.76,ENE,68,0.0,0.0,78,0.00,,,0.00,WUHU216HW,2013-04-07 15:41:00,
2013-04-07 09:46:00,37.5,31.0,29.75,ENE,68,0.0,0.0,77,0.00,,,0.00,WUHU216HW,2013-04-07 15:46:00,
2013-04-07 09:51:00,38.1,31.8,29.75,ENE,68,0.0,0.0,78,0.00,,,0.00,WUHU216HW,2013-04-07 15:51:00,
2013-04-07 09:56:00,38.4,31.5,29.75,ENE,68,0.0,2.2,76,0.00,,,0.00,WUHU216HW,2013-04-07 15:56:00,
2013-04-07 10:01:00,39.3,32.4,29.75,SE,135,0.0,4.2,76,0.00,,,0.00,WUHU216HW,2013-04-07 16:01:00,
2013-04-07 10:06:00,39.9,32.5,29.75,ESE,113,0.0,4.2,75,0.00,,,0.00,WUHU216HW,2013-04-07 16:06:00,
2013-04-07 10:11:00,40.1,32.7,29.75,SE,135,3.3,3.3,75,0.00,,,0.00,WUHU216HW,2013-04-07 16:11:00,
2013-04-07 10:16:00,40.4,32.7,29.75,SE,135,0.0,3.3,74,0.00,,,0.00,WUHU216HW,2013-04-07 16:16:00,
2013-04-07 10:21:00,40.6,32.9,29.75,SE,135,3.3,3.3,74,0.00,,,0.00,WUHU216HW,2013-04-07 16:21:00,
2013-04-07 10:26:00,40.6,32.6,29.75,ESE,113,0.0,3.3,73,0.00,,,0.00,WUHU216HW,2013-04-07 16:26:00,
2013-04-07 10:32:00,40.8,32.7,29.75,ESE,113,0.0,2.0,73,0.00,,,0.00,WUHU216HW,2013-04-07 16:32:00,
2013-04-07 10:37:00,40.8,32.7,29.74,ESE,113,0.0,0.0,73,0.00,,,0.00,WUHU216HW,2013-04-07 16:37:00,
2013-04-07 10:42:00,40.8,32.7,29.75,ESE,113,0.0,0.0,73,0.00,,,0.00,WUHU216HW,2013-04-07 16:42:00,
2013-04-07 10:47:00,40.8,32.7,29.75,ESE,113,0.0,0.0,73,0.00,,,0.00,WUHU216HW,2013-04-07 16:47:00,
2013-04-07 10:52:00,41.0,32.9,29.74,ESE,113,0.0,0.0,73,0.00,,,0.00,WUHU216HW,2013-04-07 16:52:00,
2013-04-07 10:57:00,41.1,33.1,29.74,ESE,113,0.0,0.0,73,0.00,,,0.00,WUHU216HW,2013-04-07 16:57:00,
2013-04-07 11:02:00,41.5,33.1,29.74,ENE,68,0.0,0.0,72,0.00,,,0.00,WUHU216HW,2013-04-07 17:02:00,
2013-04-07 11:07:00,41.7,33.0,29.74,ENE,68,0.0,0.0,71,0.00,,,0.00,WUHU216HW,2013-04-07 17:07:00,
2013-04-07 11:12:00,41.7,33.0,29.74,East,90,0.0,0.0,71,0.00,,,0.00,WUHU216HW,2013-04-07 17:12:00,
2013-04-07 11:17:00,41.7,32.7,29.74,North,0,4.0,4.0,70,0.00,,,0.00,WUHU216HW,2013-04-07 17:17:00,
2013-04-07 11:22:00,41.7,32.7,29.74,NNE,23,0.8,5.8,70,0.00,,,0.00,WUHU216HW,2013-04-07 17:22:00,
2013-04-07 11:27:00,41.7,32.7,29.74,NNE,23,1.1,5.8,70,0.00,,,0.00,WUHU216HW,2013-04-07 17:27:00,
2013-04-07 11:32:00,42.0,33.4,29.74,NNE,23,0.0,3.1,71,0.00,,,0.00,WUHU216HW,2013-04-07 17:32:00,
2013-04-07 11:37:00,42.4,33.7,29.74,NNE,23,3.1,3.1,71,0.00,,,0.00,WUHU216HW,2013-04-07 17:37:00,
2013-04-07 11:42:00,42.8,33.4,29.74,NNE,23,3.5,3.5,69,0.00,,,0.00,WUHU216HW,2013-04-07 17:42:00,
2013-04-07 11:47:00,43.1,33.7,29.73,NNE,23,0.0,3.5,69,0.00,,,0.00,WUHU216HW,2013-04-07 17:47:00,
2013-04-07 11:52:00,43.3,33.4,29.74,NNE,23,5.1,5.1,68,0.00,,,0.00,WUHU216HW,2013-04-07 17:52:00,
2013-04-07 11:57:00,43.5,33.6,29.74,NNE,23,0.0,5.1,68,0.00,,,0.00,WUHU216HW,2013-04-07 17:57:00,
2013-04-07 12:02:00,43.5,34.0,29.74,ENE,68,0.0,5.1,69,0.00,,,0.00,WUHU216HW,2013-04-07 18:02:00,
2013-04-07 12:07:00,43.8,33.9,29.73,NNE,23,0.0,3.8,68,0.00,,,0.00,WUHU216HW,2013-04-07 18:07:00,
2013-04-07 12:12:00,44.4,34.4,29.73,NNE,23,0.0,3.8,68,0.00,,,0.00,WUHU216HW,2013-04-07 18:12:00,
2013-04-07 12:17:00,44.7,34.4,29.73,NNW,338,0.0,0.0,67,0.00,,,0.00,WUHU216HW,2013-04-07 18:17:00,
2013-04-07 12:22:00,45.1,35.1,29.73,ESE,113,6.9,6.9,68,0.00,,,0.00,WUHU216HW,2013-04-07 18:22:00,
2013-04-07 12:27:00,45.3,34.9,29.73,NE,45,6.0,6.9,67,0.00,,,0.00,WUHU216HW,2013-04-07 18:27:00,
2013-04-07 12:32:00,45.5,35.1,29.73,NE,45,0.0,6.9,67,0.00,,,0.00,WUHU216HW,2013-04-07 18:32:00,
2013-04-07 12:37:00,45.6,35.7,29.73,SE,135,0.0,6.0,68,0.00,,,0.00,WUHU216HW,2013-04-07 18:37:00,
2013-04-07 12:42:00,46.0,35.6,29.73,NNE,23,4.2,5.5,67,0.00,,,0.00,WUHU216HW,2013-04-07 18:42:00,
2013-04-07 12:47:00,46.0,34.8,29.73,North,0,0.0,5.5,65,0.00,,,0.00,WUHU216HW,2013-04-07 18:47:00,
2013-04-07 12:52:00,45.6,34.9,29.73,ENE,68,0.0,4.2,66,0.00,,,0.00,WUHU216HW,2013-04-07 18:52:00,
2013-04-07 12:57:00,45.5,34.7,29.73,NNE,23,3.3,4.2,66,0.00,,,0.00,WUHU216HW,2013-04-07 18:57:00,
2013-04-07 13:02:00,45.5,34.7,29.73,NE,45,2.2,4.2,66,0.00,,,0.00,WUHU216HW,2013-04-07 19:02:00,
2013-04-07 13:07:00,45.5,34.7,29.73,North,0,3.3,4.4,66,0.00,,,0.00,WUHU216HW,2013-04-07 19:07:00,
2013-04-07 13:12:00,45.5,34.7,29.72,NNE,23,0.0,4.4,66,0.00,,,0.00,WUHU216HW,2013-04-07 19:12:00,
2013-04-07 13:17:00,45.5,34.7,29.73,ESE,113,5.1,5.1,66,0.00,,,0.00,WUHU216HW,2013-04-07 19:17:00,
2013-04-07 13:22:00,45.3,34.9,29.72,SE,135,3.1,5.1,67,0.00,,,0.00,WUHU216HW,2013-04-07 19:22:00,
2013-04-07 13:27:00,45.5,34.7,29.73,ENE,68,6.4,6.4,66,0.00,,,0.00,WUHU216HW,2013-04-07 19:27:00,
2013-04-07 13:32:00,45.5,35.1,29.73,ENE,68,3.5,6.4,67,0.00,,,0.00,WUHU216HW,2013-04-07 19:32:00,
2013-04-07 13:37:00,45.3,34.5,29.72,NE,45,6.2,8.7,66,0.00,,,0.00,WUHU216HW,2013-04-07 19:37:00,
2013-04-07 13:42:00,44.9,34.2,29.72,ENE,68,0.0,8.7,66,0.00,,,0.00,WUHU216HW,2013-04-07 19:42:00,
2013-04-07 13:47:00,44.7,34.8,29.73,ESE,113,5.1,6.2,68,0.00,,,0.00,WUHU216HW,2013-04-07 19:47:00,
2013-04-07 13:53:00,44.4,34.4,29.73,NE,45,0.0,5.1,68,0.00,,,0.00,WUHU216HW,2013-04-07 19:53:00,
2013-04-07 13:58:00,44.2,34.7,29.73,ENE,68,4.4,4.9,69,0.02,,,0.00,WUHU216HW,2013-04-07 19:58:00,
2013-04-07 14:03:00,44.2,34.3,29.73,ENE,68,2.6,4.9,68,0.02,,,0.02,WUHU216HW,2013-04-07 20:03:00,
2013-04-07 14:08:00,44.2,34.7,29.73,NE,45,2.6,4.4,69,0.02,,,0.02,WUHU216HW,2013-04-07 20:08:00,
2013-04-07 14:13:00,44.2,34.7,29.73,NE,45,7.8,7.8,69,0.02,,,0.02,WUHU216HW,2013-04-07 20:13:00,
2013-04-07 14:18:00,44.0,34.9,29.73,East,90,5.3,7.8,70,0.02,,,0.02,WUHU216HW,2013-04-07 20:18:00,
2013-04-07 14:23:00,43.7,34.6,29.73,ENE,68,8.7,8.7,70,0.02,,,0.02,WUHU216HW,2013-04-07 20:23:00,
2013-04-07 14:28:00,43.5,34.4,29.73,ESE,113,3.8,8.7,70,0.02,,,0.02,WUHU216HW,2013-04-07 20:28:00,
2013-04-07 14:33:00,43.3,34.6,29.73,ESE,113,4.0,8.7,71,0.02,,,0.02,WUHU216HW,2013-04-07 20:33:00,
2013-04-07 14:38:00,43.1,34.7,29.73,ENE,68,0.0,4.0,72,0.02,,,0.02,WUHU216HW,2013-04-07 20:38:00,
2013-04-07 14:43:00,43.1,34.7,29.73,NE,45,4.9,4.9,72,0.02,,,0.02,WUHU216HW,2013-04-07 20:43:00,
2013-04-07 14:48:00,42.9,34.6,29.73,NE,45,0.6,4.9,72,0.02,,,0.02,WUHU216HW,2013-04-07 20:48:00,
2013-04-07 14:53:00,43.3,34.9,29.73,ENE,68,0.0,4.9,72,0.04,,,0.04,WUHU216HW,2013-04-07 20:53:00,
2013-04-07 14:58:00,43.5,35.4,29.73,ESE,113,4.0,4.0,73,0.02,,,0.04,WUHU216HW,2013-04-07 20:58:00,
2013-04-07 15:03:00,43.8,35.7,29.73,ENE,68,3.5,4.6,73,0.02,,,0.04,WUHU216HW,2013-04-07 21:03:00,
2013-04-07 15:08:00,44.2,36.1,29.73,East,90,4.9,4.9,73,0.02,,,0.04,WUHU216HW,2013-04-07 21:08:00,
2013-04-07 15:13:00,44.2,35.7,29.73,ENE,68,7.8,7.8,72,0.02,,,0.04,WUHU216HW,2013-04-07 21:13:00,
2013-04-07 15:18:00,43.7,35.6,29.73,ESE,113,5.3,7.8,73,0.02,,,0.04,WUHU216HW,2013-04-07 21:18:00,
2013-04-07 15:24:00,43.3,35.2,29.73,East,90,5.5,6.7,73,0.02,,,0.04,WUHU216HW,2013-04-07 21:24:00,
2013-04-07 15:29:00,42.9,35.2,29.73,ENE,68,7.1,8.2,74,0.02,,,0.04,WUHU216HW,2013-04-07 21:29:00,
2013-04-07 15:34:00,42.9,35.2,29.73,ESE,113,6.2,8.2,74,0.02,,,0.04,WUHU216HW,2013-04-07 21:34:00,
2013-04-07 15:39:00,42.9,35.2,29.73,ESE,113,3.1,7.8,74,0.02,,,0.04,WUHU216HW,2013-04-07 21:39:00,
2013-04-07 15:44:00,43.3,35.9,29.73,ENE,68,6.7,7.8,75,0.00,,,0.04,WUHU216HW,2013-04-07 21:44:00,
2013-04-07 15:49:00,43.3,35.6,29.73,ENE,68,2.2,6.7,74,0.00,,,0.04,WUHU216HW,2013-04-07 21:49:00,
2013-04-07 15:55:00,42.9,35.2,29.73,ESE,113,0.0,6.9,74,0.00,,,0.04,WUHU216HW,2013-04-07 21:55:00,
2013-04-07 16:00:00,42.9,35.2,29.73,NE,45,2.6,6.9,74,0.00,,,0.04,WUHU216HW,2013-04-07 22:00:00,
2013-04-07 16:05:00,42.9,35.2,29.73,ENE,68,6.2,6.2,74,0.00,,,0.04,WUHU216HW,2013-04-07 22:05:00,
2013-04-07 16:10:00,42.9,35.4,29.73,ENE,68,4.6,6.9,74,0.00,,,0.04,WUHU216HW,2013-04-07 22:10:00,
2013-04-07 16:15:00,42.9,35.2,29.73,ENE,68,10.7,10.7,74,0.02,,,0.04,WUHU216HW,2013-04-07 22:15:00,
2013-04-07 16:20:00,42.8,35.4,29.73,ENE,68,7.1,10.7,75,0.02,,,0.06,WUHU216HW,2013-04-07 22:20:00,
2013-04-07 16:25:00,42.9,35.5,29.73,ENE,68,6.4,10.7,75,0.02,,,0.06,WUHU216HW,2013-04-07 22:25:00,
2013-04-07 16:30:00,42.9,35.5,29.73,ENE,68,7.6,7.6,75,0.02,,,0.06,WUHU216HW,2013-04-07 22:30:00,
2013-04-07 16:35:00,42.9,35.5,29.73,NE,45,2.9,7.6,75,0.02,,,0.06,WUHU216HW,2013-04-07 22:35:00,
2013-04-07 16:40:00,42.9,35.5,29.73,ENE,68,4.0,11.4,75,0.02,,,0.06,WUHU216HW,2013-04-07 22:40:00,
2013-04-07 16:45:00,42.8,35.4,29.73,NE,45,2.0,11.4,75,0.02,,,0.06,WUHU216HW,2013-04-07 22:45:00,
2013-04-07 16:50:00,42.6,35.2,29.73,ENE,68,0.0,5.1,75,0.02,,,0.06,WUHU216HW,2013-04-07 22:50:00,
2013-04-07 16:55:00,42.4,35.0,29.73,ENE,68,5.8,6.7,75,0.02,,,0.06,WUHU216HW,2013-04-07 22:55:00,
2013-04-07 17:00:00,42.4,35.0,29.74,ENE,68,2.2,6.7,75,0.02,,,0.06,WUHU216HW,2013-04-07 23:00:00,
2013-04-07 17:05:00,42.0,34.7,29.74,ENE,68,6.7,6.7,75,0.02,,,0.06,WUHU216HW,2013-04-07 23:05:00,
2013-04-07 17:10:00,42.0,34.7,29.73,NNE,23,0.0,6.7,75,0.02,,,0.06,WUHU216HW,2013-04-07 23:10:00,
2013-04-07 17:15:00,41.9,34.8,29.74,ENE,68,0.0,5.1,76,0.00,,,0.06,WUHU216HW,2013-04-07 23:15:00,
2013-04-07 17:20:00,41.5,34.4,29.74,NNE,23,4.4,5.5,76,0.00,,,0.06,WUHU216HW,2013-04-07 23:20:00,
2013-04-07 17:25:00,41.1,34.1,29.75,NNE,23,6.2,7.3,76,0.00,,,0.06,WUHU216HW,2013-04-07 23:25:00,
2013-04-07 17:30:00,40.6,33.6,29.75,NNE,23,2.0,7.3,76,0.00,,,0.06,WUHU216HW,2013-04-07 23:30:00,
2013-04-07 17:35:00,39.9,33.5,29.75,NNW,338,1.1,6.2,78,0.02,,,0.08,WUHU216HW,2013-04-07 23:35:00,
2013-04-07 17:40:00,39.9,33.5,29.75,NNW,338,0.0,1.1,78,0.04,,,0.10,WUHU216HW,2013-04-07 23:40:00,
2013-04-07 17:45:00,39.7,33.4,29.75,NNE,23,0.0,1.1,78,0.04,,,0.10,WUHU216HW,2013-04-07 23:45:00,
2013-04-07 17:50:00,39.7,33.4,29.75,NNW,338,0.0,6.2,78,0.06,,,0.12,WUHU216HW,2013-04-07 23:50:00,
2013-04-07 17:55:00,39.7,33.4,29.76,NNW,338,0.0,6.2,78,0.06,,,0.12,WUHU216HW,2013-04-07 23:55:00,
2013-04-07 18:00:00,39.5,33.6,29.75,NW,315,0.0,0.0,79,0.06,,,0.12,WUHU216HW,2013-04-08 00:00:00,
2013-04-07 18:05:00,39.5,33.6,29.76,NNW,338,0.0,1.1,79,0.06,,,0.12,WUHU216HW,2013-04-08 00:05:00,
2013-04-07 18:10:00,39.5,33.6,29.76,NW,315,0.0,1.1,79,0.06,,,0.12,WUHU216HW,2013-04-08 00:10:00,
2013-04-07 18:15:00,39.3,33.4,29.77,WNW,293,0.0,0.0,79,0.06,,,0.12,WUHU216HW,2013-04-08 00:15:00,
2013-04-07 18:20:00,39.3,33.4,29.77,NW,315,6.7,6.7,79,0.06,,,0.12,WUHU216HW,2013-04-08 00:20:00,
2013-04-07 18:25:00,39.0,33.0,29.78,WNW,293,0.0,6.7,79,0.08,,,0.14,WUHU216HW,2013-04-08 00:25:00,
2013-04-07 18:30:00,39.0,33.0,29.77,WNW,293,4.6,6.7,79,0.06,,,0.14,WUHU216HW,2013-04-08 00:30:00,
2013-04-07 18:35:00,38.4,32.5,29.77,NNW,338,2.9,4.6,79,0.08,,,0.16,WUHU216HW,2013-04-08 00:35:00,
2013-04-07 18:40:00,38.3,32.3,29.78,WNW,293,0.0,2.9,79,0.08,,,0.16,WUHU216HW,2013-04-08 00:40:00,
2013-04-07 18:45:00,38.1,32.1,29.77,NNE,23,1.3,2.9,79,0.06,,,0.18,WUHU216HW,2013-04-08 00:45:00,
2013-04-07 18:50:00,37.5,31.3,29.77,NNE,23,7.3,11.8,78,0.08,,,0.20,WUHU216HW,2013-04-08 00:50:00,
2013-04-07 18:55:00,36.6,30.4,29.78,NW,315,7.1,11.8,78,0.08,,,0.20,WUHU216HW,2013-04-08 00:55:00,
2013-04-07 19:00:00,36.3,30.4,29.78,North,0,4.9,7.3,79,0.10,,,0.22,WUHU216HW,2013-04-08 01:00:00,
2013-04-07 19:05:00,35.7,30.2,29.78,NNE,23,0.2,6.7,80,0.10,,,0.22,WUHU216HW,2013-04-08 01:05:00,
2013-04-07 19:10:00,35.4,29.8,29.78,NNE,23,4.6,6.9,80,0.10,,,0.22,WUHU216HW,2013-04-08 01:10:00,
2013-04-07 19:15:00,35.4,30.1,29.78,NNE,23,0.0,9.6,81,0.10,,,0.22,WUHU216HW,2013-04-08 01:15:00,
2013-04-07 19:20:00,35.2,29.9,29.78,NNW,338,5.8,10.5,81,0.10,,,0.22,WUHU216HW,2013-04-08 01:20:00,
2013-04-07 19:25:00,34.8,29.5,29.79,NE,45,4.6,10.5,81,0.08,,,0.22,WUHU216HW,2013-04-08 01:25:00,
2013-04-07 19:30:00,34.7,29.4,29.80,NE,45,1.1,7.8,81,0.06,,,0.22,WUHU216HW,2013-04-08 01:30:00,
2013-04-07 19:35:00,34.3,29.3,29.80,NNE,23,8.9,15.8,82,0.06,,,0.22,WUHU216HW,2013-04-08 01:35:00,
2013-04-07 19:40:00,34.3,29.3,29.81,NNW,338,3.3,15.8,82,0.04,,,0.22,WUHU216HW,2013-04-08 01:40:00,
2013-04-07 19:45:00,34.3,29.3,29.81,NNW,338,4.9,8.9,82,0.02,,,0.22,WUHU216HW,2013-04-08 01:45:00,
2013-04-07 19:50:00,34.1,29.1,29.81,NE,45,0.0,11.6,82,0.02,,,0.22,WUHU216HW,2013-04-08 01:50:00,
2013-04-07 19:55:00,33.9,28.9,29.81,NNE,23,0.0,11.6,82,0.02,,,0.22,WUHU216HW,2013-04-08 01:55:00,
2013-04-07 20:00:00,33.9,28.9,29.81,North,0,2.6,7.1,82,0.00,,,0.22,WUHU216HW,2013-04-08 02:00:00,
2013-04-07 20:05:00,33.8,28.7,29.81,WNW,293,3.1,8.7,82,0.00,,,0.22,WUHU216HW,2013-04-08 02:05:00,
2013-04-07 20:10:00,33.6,28.6,29.81,North,0,6.0,8.7,82,0.00,,,0.22,WUHU216HW,2013-04-08 02:10:00,
2013-04-07 20:15:00,33.6,28.6,29.81,NNE,23,0.0,6.0,82,0.00,,,0.22,WUHU216HW,2013-04-08 02:15:00,
2013-04-07 20:20:00,33.4,28.4,29.81,NE,45,0.8,3.5,82,0.00,,,0.22,WUHU216HW,2013-04-08 02:20:00,
2013-04-07 20:25:00,33.4,28.4,29.82,North,0,2.6,3.5,82,0.00,,,0.22,WUHU216HW,2013-04-08 02:25:00,
2013-04-07 20:30:00,33.2,28.3,29.82,NNE,23,0.0,4.9,82,0.00,,,0.22,WUHU216HW,2013-04-08 02:30:00,
2013-04-07 20:35:00,33.0,28.1,29.82,North,0,6.4,6.4,82,0.00,,,0.22,WUHU216HW,2013-04-08 02:35:00,
2013-04-07 20:40:00,33.0,28.1,29.82,ENE,68,0.0,6.4,82,0.00,,,0.22,WUHU216HW,2013-04-08 02:40:00,
2013-04-07 20:45:00,33.0,28.1,29.82,NE,45,3.8,6.4,82,0.00,,,0.22,WUHU216HW,2013-04-08 02:45:00,
2013-04-07 20:50:00,32.9,27.9,29.82,NNW,338,0.0,6.0,82,0.00,,,0.22,WUHU216HW,2013-04-08 02:50:00,
2013-04-07 20:55:00,32.9,27.9,29.83,NE,45,0.0,8.2,82,0.00,,,0.22,WUHU216HW,2013-04-08 02:55:00,
2013-04-07 21:00:00,32.7,27.8,29.84,NNW,338,6.4,8.2,82,0.00,,,0.22,WUHU216HW,2013-04-08 03:00:00,
2013-04-07 21:05:00,32.7,27.8,29.84,North,0,6.4,10.2,82,0.00,,,0.22,WUHU216HW,2013-04-08 03:05:00,
2013-04-07 21:10:00,32.7,27.8,29.84,North,0,5.8,10.2,82,0.00,,,0.22,WUHU216HW,2013-04-08 03:10:00,
2013-04-07 21:16:00,32.5,27.6,29.84,North,0,3.5,6.4,82,0.00,,,0.22,WUHU216HW,2013-04-08 03:16:00,
2013-04-07 21:21:00,32.5,27.6,29.84,North,0,8.7,10.2,82,0.00,,,0.22,WUHU216HW,2013-04-08 03:21:00,
2013-04-07 21:26:00,32.5,27.6,29.84,NNE,23,0.0,10.2,82,0.00,,,0.22,WUHU216HW,2013-04-08 03:26:00,
2013-04-07 21:31:00,32.5,27.6,29.84,North,0,0.0,8.7,82,0.00,,,0.22,WUHU216HW,2013-04-08 03:31:00,
2013-04-07 21:36:00,32.5,27.6,29.84,NW,315,3.5,4.6,82,0.00,,,0.22,WUHU216HW,2013-04-08 03:36:00,
2013-04-07 21:42:00,32.5,27.6,29.85,NNE,23,10.0,10.0,82,0.00,,,0.22,WUHU216HW,2013-04-08 03:42:00,
2013-04-07 21:47:00,32.3,27.5,29.85,NNE,23,3.8,10.0,82,0.00,,,0.22,WUHU216HW,2013-04-08 03:47:00,
2013-04-07 21:52:00,32.3,27.5,29.85,North,0,8.2,10.0,82,0.00,,,0.22,WUHU216HW,2013-04-08 03:52:00,
2013-04-07 21:57:00,32.3,27.5,29.86,North,0,3.8,8.2,82,0.00,,,0.22,WUHU216HW,2013-04-08 03:57:00,
2013-04-07 22:02:00,32.3,27.5,29.86,North,0,7.1,7.3,82,0.00,,,0.22,WUHU216HW,2013-04-08 04:02:00,
2013-04-07 22:07:00,32.1,27.3,29.86,NNW,338,2.9,11.8,82,0.00,,,0.22,WUHU216HW,2013-04-08 04:07:00,
2013-04-07 22:12:00,32.1,27.3,29.86,North,0,4.0,11.8,82,0.00,,,0.22,WUHU216HW,2013-04-08 04:12:00,
2013-04-07 22:17:00,32.0,27.1,29.86,NNE,23,6.2,10.0,82,0.00,,,0.22,WUHU216HW,2013-04-08 04:17:00,
2013-04-07 22:22:00,31.8,26.9,29.86,NNE,23,3.3,10.5,82,0.00,,,0.22,WUHU216HW,2013-04-08 04:22:00,
2013-04-07 22:27:00,31.6,26.8,29.86,NNE,23,9.1,10.5,82,0.00,,,0.22,WUHU216HW,2013-04-08 04:27:00,
2013-04-07 22:32:00,31.6,26.8,29.87,NNE,23,11.1,11.1,82,0.00,,,0.22,WUHU216HW,2013-04-08 04:32:00,
2013-04-07 22:37:00,31.2,26.4,29.87,NNE,23,5.3,11.1,82,0.00,,,0.22,WUHU216HW,2013-04-08 04:37:00,
2013-04-07 22:42:00,31.1,26.2,29.87,NNE,23,7.8,10.0,82,0.00,,,0.22,WUHU216HW,2013-04-08 04:42:00,
2013-04-07 22:47:00,31.1,26.2,29.88,NNE,23,10.0,10.0,82,0.00,,,0.22,WUHU216HW,2013-04-08 04:47:00,
2013-04-07 22:52:00,30.7,26.2,29.88,NNE,23,7.8,15.4,83,0.00,,,0.22,WUHU216HW,2013-04-08 04:52:00,
2013-04-07 22:57:00,30.7,26.2,29.88,NNE,23,6.9,15.4,83,0.00,,,0.22,WUHU216HW,2013-04-08 04:57:00,
2013-04-07 23:02:00,30.7,26.2,29.88,NNE,23,8.2,8.7,83,0.00,,,0.22,WUHU216HW,2013-04-08 05:02:00,
2013-04-07 23:07:00,30.5,26.0,29.89,NNE,23,6.9,10.0,83,0.00,,,0.22,WUHU216HW,2013-04-08 05:07:00,
2013-04-07 23:12:00,30.3,25.8,29.89,NNE,23,9.6,12.7,83,0.00,,,0.22,WUHU216HW,2013-04-08 05:12:00,
2013-04-07 23:17:00,30.2,25.9,29.89,NNE,23,3.1,12.7,84,0.00,,,0.22,WUHU216HW,2013-04-08 05:17:00,
2013-04-07 23:22:00,30.0,25.7,29.89,NNE,23,6.2,11.4,84,0.00,,,0.22,WUHU216HW,2013-04-08 05:22:00,
2013-04-07 23:27:00,30.0,25.7,29.89,NNE,23,1.1,7.8,84,0.00,,,0.22,WUHU216HW,2013-04-08 05:27:00,
2013-04-07 23:32:00,30.0,25.7,29.89,NNE,23,6.9,7.8,84,0.00,,,0.22,WUHU216HW,2013-04-08 05:32:00,
2013-04-07 23:37:00,29.8,25.5,29.89,NNE,23,0.0,7.8,84,0.00,,,0.22,WUHU216HW,2013-04-08 05:37:00,
2013-04-07 23:42:00,29.8,25.5,29.89,NNE,23,4.2,7.8,84,0.00,,,0.22,WUHU216HW,2013-04-08 05:42:00,
2013-04-07 23:47:00,29.6,25.4,29.89,NNE,23,0.0,6.0,84,0.00,,,0.22,WUHU216HW,2013-04-08 05:47:00,
2013-04-07 23:52:00,29.4,25.2,29.90,NNE,23,4.6,6.9,84,0.00,,,0.22,WUHU216HW,2013-04-08 05:52:00,
2013-04-07 23:57:00,29.4,25.2,29.90,NNE,23,4.9,6.9,84,0.00,,,0.22,WUHU216HW,2013-04-08 05:57:00,